Miscellaneous Local Product
Issued by NWS Hastings, NE

Home | Current Version | Previous Version | Text Only | Print | Product List | Glossary Off
Versions: 1 2 3 4 5 6 7 8 9 10 11 12 13 14 15 16 17 18 19 20 21 22 23 24 25 26 27 28 29 30 31 32 33 34 35 36 37 38 39 40 41 42 43 44 45 46 47 48 49 50

000
AXUS43 KGID 272102
MISGRI

GID CWA HOURLY WEATHER ROUNDUP
NATIONAL WEATHER SERVICE HASTINGS NE
300 PM CST FRI FEB 27 2015

NOTE: "FAIR" INDICATES FEW OR NO CLOUDS BELOW 12,000 FEET WITH NO
SIGNIFICANT WEATHER AND/OR OBSTRUCTIONS TO VISIBILITY.

...SOUTH CENTRAL NEBRASKA...

CITY           SKY/WX    TMP DP  RH WIND       PRES   REMARKS
GRAND ISLAND   MOSUNNY   22  -3  33 S9        30.41F WCI  12
HASTINGS       MOSUNNY   21  -5  31 SE8       30.39F WCI  11
KEARNEY        SUNNY     21  -6  30 S12       30.36F WCI   9
ORD            SUNNY     22  -6  29 S13G20    30.35F WCI  10
YORK           SUNNY     19  -2  38 S6        30.45F WCI  11
AURORA         SUNNY     21  -5  31 S8        30.41F WCI  12
LEXINGTON      MOSUNNY   24  -2  32 S12       30.32F WCI  13
HOLDREGE       PTSUNNY   20  -5  32 SE8       30.35F WCI  11
HEBRON         MOSUNNY   21  -2  36 SE5       30.47F WCI  15

...NEBRASKA PANHANDLE...

CITY           SKY/WX    TMP DP  RH WIND       PRES   REMARKS
CHADRON        CLOUDY    24  10  55 S22G32    30.06F WCI   9
ALLIANCE       LGT SNOW  19  11  70 S23G32    30.05F WCI   2
SCOTTSBLUFF    FLURRIES  23   9  55 S23       30.02F WCI   7
SIDNEY         CLOUDY    18   8  65 S22G29    30.04F WCI   1

...WESTERN AND NORTH CENTRAL NEBRASKA...

CITY           SKY/WX    TMP DP  RH WIND       PRES   REMARKS
VALENTINE      SUNNY     25   0  33 S15       30.22F WCI  13
AINSWORTH      SUNNY     24  -4  29 S15       30.24F WCI  11
ONEILL         SUNNY     24  -4  29 S12       30.35F WCI  13
BROKEN BOW     SUNNY     23  -2  33 S10G24    30.29F WCI  12
IMPERIAL       FLURRIES  20   9  62 S18G25    30.19F WCI   5
NORTH PLATTE   SUNNY     24   1  36 S13       30.24F WCI  12
MCCOOK         CLOUDY    23   4  44 S12G23    30.29F WCI  12

...EASTERN NEBRASKA...

CITY           SKY/WX    TMP DP  RH WIND       PRES   REMARKS
NORFOLK        SUNNY     21   0  39 MISG      30.43F
TEKAMAH        SUNNY     17   4  56 SE5       30.54F WCI  10
COLUMBUS       SUNNY     19  -2  38 SE8       30.47F WCI   9
ALBION         SUNNY     21  -4  32 S8        30.40F WCI  12
OMAHA EPPLEY   MOSUNNY   18   1  47 CALM      30.55F
MILLARD        SUNNY     19  -1  43 S5        30.53F WCI  12
LINCOLN        SUNNY     20  -1  40 SE6       30.51F WCI  12
NEBRASKA CITY  SUNNY     20  -4  34 E5        30.52F WCI  14
BEATRICE       MOSUNNY   20  -2  38 CALM      30.49F
FALLS CITY     MOSUNNY   20  -2  38 CALM      30.54F

...NORTHERN KANSAS...

CITY           SKY/WX    TMP DP  RH WIND       PRES   REMARKS
GOODLAND       FLURRIES  16   9  74 S21G29    30.18F WCI  -1
HILL CITY      PTSUNNY   22   3  44 S13       30.37F WCI  10
NORTON         CLOUDY    21  -6  30 SE10      30.33F WCI  10
PHILLIPSBURG   CLOUDY    25  -2  30 SE9       30.40F WCI  15
HAYS           CLOUDY    19   0  42 SE12      30.40F WCI   7
RUSSELL        CLOUDY    19   2  47 SE8       30.42F WCI   9
CONCORDIA      PTSUNNY   18   0  45 SE10      30.48F WCI   6
SALINA         CLOUDY    21   1  41 E8        30.50F WCI  11
TOPEKA         CLOUDY    18   0  45 E3        30.56F



USA.gov is the U.S. government's official web portal to all federal, state and local government web resources and services.